W9IF-4 Weather Reports


Display with metric or nautical units.
time (UTC)temp
F
wind
direction
speed
MPH
gust
MPH
rain 1hr
in
rain 24hr
in
rain mn
in
humidity
%
barometer
mb
20140418031631 59 217 5.0 0.0 0.00 0.00 0.00 1015.6
20140418031531 59 211 8.0 0.0 0.00 0.00 0.00 1015.6
20140418031331 59 229 6.0 0.0 0.00 0.00 0.00 1015.6
20140418031231 59 124 4.0 0.0 0.00 0.00 0.00 1015.6
20140418031031 59 197 6.0 0.0 0.00 0.00 0.00 1015.5
20140418030931 59 181 5.0 0.0 0.00 0.00 0.00 1015.5
20140418030731 59 226 7.0 0.0 0.00 0.00 0.00 1015.5
20140418030634 59 211 6.0 0.0 0.00 0.00 0.00 1015.5
20140418030531 59 228 7.0 0.0 0.00 0.00 0.00 1015.4
20140418030431 59 218 7.0 0.0 0.00 0.00 0.00 1015.4
20140418030331 59 211 6.0 0.0 0.00 0.00 0.00 1015.3
20140418030231 59 222 6.0 0.0 0.00 0.00 0.00 1015.3
20140418030131 59 228 7.0 0.0 0.00 0.00 0.00 1015.3
20140418025932 59 212 8.0 0.0 0.00 0.00 0.00 1015.4
20140418025831 59 207 6.0 0.0 0.00 0.00 0.00 1015.4
20140418025731 59 215 6.0 0.0 0.00 0.00 0.00 1015.5
20140418025531 59 211 7.0 0.0 0.00 0.00 0.00 1015.4
20140418025331 59 207 8.0 0.0 0.00 0.00 0.00 1015.3
20140418025231 59 180 3.0 0.0 0.00 0.00 0.00 1015.2
20140418025131 59 195 5.0 0.0 0.00 0.00 0.00 1015.2
20140418025032 59 221 8.0 0.0 0.00 0.00 0.00 1015.2
20140418024931 59 229 8.0 0.0 0.00 0.00 0.00 1015.2
20140418024831 59 225 7.0 0.0 0.00 0.00 0.00 1015.2
20140418024731 59 228 7.0 0.0 0.00 0.00 0.00 1015.1
20140418024631 59 229 9.0 0.0 0.00 0.00 0.00 1015.1
20140418024531 59 233 7.0 0.0 0.00 0.00 0.00 1015.1
20140418024331 59 221 6.0 0.0 0.00 0.00 0.00 1015.2
20140418024231 59 231 9.0 0.0 0.00 0.00 0.00 1015.2
20140418024131 59 219 7.0 0.0 0.00 0.00 0.00 1015.1
20140418024031 59 232 7.0 0.0 0.00 0.00 0.00 1015.0
20140418023932 59 225 3.0 0.0 0.00 0.00 0.00 1015.0
20140418023831 59 225 0.0 0.0 0.00 0.00 0.00 1015.0
20140418023731 59 222 6.0 0.0 0.00 0.00 0.00 1015.1
20140418023631 59 228 4.0 0.0 0.00 0.00 0.00 1015.1
20140418023531 59 218 6.0 0.0 0.00 0.00 0.00 1015.1
20140418023431 59 242 6.0 0.0 0.00 0.00 0.00 1015.1
20140418023331 59 226 9.0 0.0 0.00 0.00 0.00 1015.2
20140418023131 59 221 10.0 0.0 0.00 0.00 0.00 1015.2
20140418023031 59 233 12.0 0.0 0.00 0.00 0.00 1015.3
20140418022932 59 229 8.0 0.0 0.00 0.00 0.00 1015.2
20140418022731 59 225 11.0 0.0 0.00 0.00 0.00 1015.2
20140418022631 59 226 9.0 0.0 0.00 0.00 0.00 1015.2
20140418022531 59 229 12.0 0.0 0.00 0.00 0.00 1015.3
20140418022431 59 229 10.0 0.0 0.00 0.00 0.00 1015.2
20140418022231 59 217 11.0 0.0 0.00 0.00 0.00 1015.2
20140418022131 59 229 10.0 0.0 0.00 0.00 0.00 1015.1
20140418022031 59 219 9.0 0.0 0.00 0.00 0.00 1015.1
20140418021931 59 229 11.0 0.0 0.00 0.00 0.00 1015.2
20140418021731 59 221 12.0 0.0 0.00 0.00 0.00 1015.2
20140418021631 59 224 9.0 0.0 0.00 0.00 0.00 1015.2
20140418021531 59 226 8.0 0.0 0.00 0.00 0.00 1015.2
20140418021331 59 228 10.0 0.0 0.00 0.00 0.00 1015.1
20140418021231 59 225 10.0 0.0 0.00 0.00 0.00 1015.1
20140418021131 59 226 7.0 0.0 0.00 0.00 0.00 1015.0
20140418021031 59 228 10.0 0.0 0.00 0.00 0.00 1015.1
20140418020931 60 240 10.0 0.0 0.00 0.00 0.00 1015.1
20140418020831 59 218 9.0 0.0 0.00 0.00 0.00 1015.1
20140418020731 59 219 10.0 0.0 0.00 0.00 0.00 1015.1
20140418020631 60 226 8.0 0.0 0.00 0.00 0.00 1015.1
20140418020531 59 238 10.0 0.0 0.00 0.00 0.00 1015.1
20140418020431 60 221 11.0 0.0 0.00 0.00 0.00 1015.1
20140418020332 59 215 9.0 0.0 0.00 0.00 0.00 1015.1
20140418020231 59 236 9.0 0.0 0.00 0.00 0.00 1015.1
20140418020131 60 235 9.0 0.0 0.00 0.00 0.00 1015.1
20140418015932 60 221 6.0 0.0 0.00 0.00 0.00 1015.1
20140418015831 59 228 8.0 0.0 0.00 0.00 0.00 1015.1
20140418015731 59 238 12.0 0.0 0.00 0.00 0.00 1015.1
20140418015631 60 228 11.0 0.0 0.00 0.00 0.00 1015.0
20140418015331 59 217 9.0 0.0 0.00 0.00 0.00 1015.1
20140418015131 60 215 9.0 0.0 0.00 0.00 0.00 1015.1
20140418015031 60 228 9.0 0.0 0.00 0.00 0.00 1015.2
20140418014931 60 222 10.0 0.0 0.00 0.00 0.00 1015.2
20140418014831 60 222 9.0 0.0 0.00 0.00 0.00 1015.1
20140418014731 60 225 14.0 0.0 0.00 0.00 0.00 1015.1
20140418014631 60 222 10.0 0.0 0.00 0.00 0.00 1015.1
20140418014531 60 219 12.0 0.0 0.00 0.00 0.00 1015.1
20140418014431 60 232 8.0 0.0 0.00 0.00 0.00 1015.1
20140418014331 60 232 9.0 0.0 0.00 0.00 0.00 1015.1
20140418014131 60 232 8.0 0.0 0.00 0.00 0.00 1015.1
20140418014031 60 232 9.0 0.0 0.00 0.00 0.00 1015.0
20140418013931 60 248 10.0 0.0 0.00 0.00 0.00 1015.1
20140418013731 61 232 10.0 0.0 0.00 0.00 0.00 1015.0
20140418013631 60 238 11.0 0.0 0.00 0.00 0.00 1014.9
20140418013531 61 235 9.0 0.0 0.00 0.00 0.00 1014.9
20140418013431 61 243 9.0 0.0 0.00 0.00 0.00 1014.8
20140418013331 61 224 8.0 0.0 0.00 0.00 0.00 1014.8
20140418013131 61 242 11.0 0.0 0.00 0.00 0.00 1014.8
20140418013031 61 246 9.0 0.0 0.00 0.00 0.00 1014.8
20140418012931 61 239 11.0 0.0 0.00 0.00 0.00 1014.8
20140418012831 62 229 11.0 0.0 0.00 0.00 0.00 1014.8
20140418012731 62 236 8.0 0.0 0.00 0.00 0.00 1014.7
20140418012631 62 243 9.0 0.0 0.00 0.00 0.00 1014.7
20140418012531 62 246 9.0 0.0 0.00 0.00 0.00 1014.6
20140418012431 62 219 8.0 0.0 0.00 0.00 0.00 1014.7
20140418012331 62 238 8.0 0.0 0.00 0.00 0.00 1014.7
20140418012231 62 240 8.0 0.0 0.00 0.00 0.00 1014.7
20140418012131 62 240 10.0 0.0 0.00 0.00 0.00 1014.6
20140418011931 62 236 9.0 0.0 0.00 0.00 0.00 1014.6
20140418011831 62 252 7.0 0.0 0.00 0.00 0.00 1014.6
20140418011731 62 235 7.0 0.0 0.00 0.00 0.00 1014.6
20140418011631 62 218 8.0 0.0 0.00 0.00 0.00 1014.6
20140418011531 62 214 7.0 0.0 0.00 0.00 0.00 1014.7
20140418011431 62 228 10.0 0.0 0.00 0.00 0.00 1014.7
20140418011331 62 238 10.0 0.0 0.00 0.00 0.00 1014.7
20140418011231 62 232 11.0 0.0 0.00 0.00 0.00 1014.7
20140418011131 62 226 9.0 0.0 0.00 0.00 0.00 1014.7
20140418011031 62 225 8.0 0.0 0.00 0.00 0.00 1014.8
20140418010831 62 233 10.0 0.0 0.00 0.00 0.00 1014.8
20140418010731 62 229 10.0 0.0 0.00 0.00 0.00 1014.7
20140418010631 62 225 9.0 0.0 0.00 0.00 0.00 1014.7
20140418010531 62 250 5.0 0.0 0.00 0.00 0.00 1014.7
20140418010431 62 221 11.0 0.0 0.00 0.00 0.00 1014.7
20140418010331 62 225 10.0 0.0 0.00 0.00 0.00 1014.7
20140418010231 62 246 12.0 0.0 0.00 0.00 0.00 1014.7
20140418010031 62 231 8.0 0.0 0.00 0.00 0.00 1014.7
20140418005931 62 217 8.0 0.0 0.00 0.00 0.00 1014.8
20140418005831 62 231 8.0 0.0 0.00 0.00 0.00 1014.8
20140418005631 62 239 11.0 0.0 0.00 0.00 0.00 1014.8
20140418005531 62 231 8.0 0.0 0.00 0.00 0.00 1014.7
20140418005431 62 240 10.0 0.0 0.00 0.00 0.00 1014.8
20140418005331 62 243 13.0 0.0 0.00 0.00 0.00 1014.8
20140418005231 62 228 11.0 0.0 0.00 0.00 0.00 1014.7
20140418004931 61 217 12.0 0.0 0.00 0.00 0.00 1015.0
20140418004731 62 222 14.0 0.0 0.00 0.00 0.00 1014.8
20140418004631 62 219 10.0 0.0 0.00 0.00 0.00 1014.8
20140418004431 62 231 10.0 0.0 0.00 0.00 0.00 1014.9
20140418004331 62 226 11.0 0.0 0.00 0.00 0.00 1014.9
20140418004231 62 222 12.0 0.0 0.00 0.00 0.00 1014.9
20140418004131 62 217 11.0 0.0 0.00 0.00 0.00 1014.9
20140418004031 62 210 13.0 0.0 0.00 0.00 0.00 1014.9
20140418003931 62 245 12.0 0.0 0.00 0.00 0.00 1014.9
20140418003831 62 226 14.0 0.0 0.00 0.00 0.00 1014.9
20140418003731 62 219 13.0 0.0 0.00 0.00 0.00 1014.9
20140418003531 62 236 11.0 0.0 0.00 0.00 0.00 1014.9
20140418003431 62 215 12.0 0.0 0.00 0.00 0.00 1014.9
20140418003331 62 221 15.0 0.0 0.00 0.00 0.00 1014.8
20140418003231 62 218 11.0 0.0 0.00 0.00 0.00 1014.8
20140418003131 62 218 13.0 0.0 0.00 0.00 0.00 1014.8
20140418003031 63 228 13.0 0.0 0.00 0.00 0.00 1014.8
20140418002931 63 226 11.0 0.0 0.00 0.00 0.00 1014.8
20140418002831 63 226 12.0 0.0 0.00 0.00 0.00 1014.8
20140418002731 63 222 15.0 0.0 0.00 0.00 0.00 1014.8
20140418002631 63 219 12.0 0.0 0.00 0.00 0.00 1014.8
20140418002531 63 210 11.0 0.0 0.00 0.00 0.00 1014.7
20140418002431 63 205 12.0 0.0 0.00 0.00 0.00 1014.7
20140418002331 63 218 11.0 0.0 0.00 0.00 0.00 1014.7
20140418002231 64 215 11.0 0.0 0.00 0.00 0.00 1014.7
20140418002031 63 226 9.0 0.0 0.00 0.00 0.00 1014.7
20140418001931 64 212 11.0 0.0 0.00 0.00 0.00 1014.7
20140418001831 64 217 11.0 0.0 0.00 0.00 0.00 1014.7
20140418001731 64 194 10.0 0.0 0.00 0.00 0.00 1014.7
20140418001631 64 226 11.0 0.0 0.00 0.00 0.00 1014.7
20140418001531 64 217 14.0 0.0 0.00 0.00 0.00 1014.7
20140418001431 65 204 10.0 0.0 0.00 0.00 0.00 1014.7
20140418001331 65 219 10.0 0.0 0.00 0.00 0.00 1014.6
20140418001231 65 210 11.0 0.0 0.00 0.00 0.00 1014.5
20140418001131 65 236 9.0 0.0 0.00 0.00 0.00 1014.5
20140418001031 65 240 11.0 0.0 0.00 0.00 0.00 1014.5
20140418000931 66 242 13.0 0.0 0.00 0.00 0.00 1014.5
20140418000831 65 221 12.0 0.0 0.00 0.00 0.00 1014.6
20140418000731 65 233 11.0 0.0 0.00 0.00 0.00 1014.6
20140418000631 65 224 13.0 0.0 0.00 0.00 0.00 1014.6
20140418000431 66 236 12.0 0.0 0.00 0.00 0.00 1014.7
20140418000331 66 222 11.0 0.0 0.00 0.00 0.00 1014.6
20140418000231 66 229 11.0 0.0 0.00 0.00 0.00 1014.6
20140418000131 67 221 10.0 0.0 0.00 0.00 0.00 1014.5
20140418000031 66 243 10.0 0.0 0.00 0.00 0.00 1014.6
20140417235931 66 229 9.0 0.0 0.00 0.00 0.00 1014.6
20140417235831 65 228 12.0 0.0 0.00 0.00 0.00 1014.5
20140417235731 65 236 10.0 0.0 0.00 0.00 0.00 1014.5
20140417235631 65 235 12.0 0.0 0.00 0.00 0.00 1014.5
20140417235531 65 250 9.0 0.0 0.00 0.00 0.00 1014.6
20140417235431 65 211 11.0 0.0 0.00 0.00 0.00 1014.5
20140417235331 65 197 10.0 0.0 0.00 0.00 0.00 1014.6
20140417235231 65 224 10.0 0.0 0.00 0.00 0.00 1014.5
20140417235131 65 242 13.0 0.0 0.00 0.00 0.00 1014.6
20140417235031 65 238 14.0 0.0 0.00 0.00 0.00 1014.5
20140417234931 65 222 11.0 0.0 0.00 0.00 0.00 1014.5
20140417234831 65 236 12.0 0.0 0.00 0.00 0.00 1014.5
20140417234731 65 238 11.0 0.0 0.00 0.00 0.00 1014.5
20140417234531 65 242 12.0 0.0 0.00 0.00 0.00 1014.5
20140417234231 66 245 8.0 0.0 0.00 0.00 0.00 1014.4
20140417234131 66 235 12.0 0.0 0.00 0.00 0.00 1014.4
20140417234031 66 239 9.0 0.0 0.00 0.00 0.00 1014.4
20140417233931 67 239 11.0 0.0 0.00 0.00 0.00 1014.3
20140417233831 67 224 10.0 0.0 0.00 0.00 0.00 1014.3
20140417233731 67 238 0.0 0.0 0.00 0.00 0.00 1014.2
20140417233631 67 259 6.0 0.0 0.00 0.00 0.00 1014.2
20140417233531 67 242 10.0 0.0 0.00 0.00 0.00 1014.2
20140417233431 67 249 9.0 0.0 0.00 0.00 0.00 1014.2
20140417233331 67 243 10.0 0.0 0.00 0.00 0.00 1014.3
20140417233231 68 239 9.0 0.0 0.00 0.00 0.00 1014.3
20140417233131 68 239 10.0 0.0 0.00 0.00 0.00 1014.4
20140417232931 68 250 11.0 0.0 0.00 0.00 0.00 1014.4
20140417232831 68 238 12.0 0.0 0.00 0.00 0.00 1014.5
20140417232731 68 236 14.0 0.0 0.00 0.00 0.00 1014.5
20140417232630 67 232 12.0 0.0 0.00 0.00 0.00 1014.4
20140417232530 67 252 13.0 0.0 0.00 0.00 0.00 1014.5
20140417232430 67 242 10.0 0.0 0.00 0.00 0.00 1014.4
20140417232331 67 240 11.0 0.0 0.00 0.00 0.00 1014.5
20140417232230 67 243 13.0 0.0 0.00 0.00 0.00 1014.4
20140417231930 67 228 10.0 0.0 0.00 0.00 0.00 1014.4
20140417231830 67 225 10.0 0.0 0.00 0.00 0.00 1014.5
20140417231730 67 248 11.0 0.0 0.00 0.00 0.00 1014.5